Barcelona, Spain

5:44 PM CET en Diciembre 18, 2018 (GMT +0100)
El Prat

Tiempo Historia de LEBL - Diciembre, 2018

Change the Weather History Date:

Viernes, Diciembre 7, 2018

  Actual Average Record
Temperature  
Temperatura media 52 ° F -  
Temperatura máxima 57 ° F 55 ° F 66 ° F (2010)
Temperatura mínima 46 ° F 42 ° F 37 ° F (1997)
Degree Days  
Grados día de calefacción 14    
Growing Degree Days 2 (Base 50)    
Moisture  
Punto de rocío 44 ° F    
Average Humidity 77    
Maximum Humidity 87    
Minimum Humidity 56    
Precipitación  
Precipitación 0.00 pul 0.06 pul - ()
Presión al nivel del mar  
Presión al nivel del mar 30.25 pul    
Viento  
Velocidad del viento 11 mph ()    
Velocidad máxima del viento 17 mph    
Max Gust Speed 32 mph    
Visibilidad 8.4 Millas    
Eventos      
Averages and records for this station are not official NWS values.
T = Trace of Precipitation, MM = Missing Value Source: Averaged Metar Reports

Daily Weather History Graph

Daily Weather History Graph

Search for Another Location

Airport or City:

Astronomía

Dec. 07, 2018 Salida Puesta
Hora real 8:03 AM CET 5:22 PM CET
Crepúsculo civil 7:32 AM CET 5:53 PM CET
Crepúsculo náutico 6:58 AM CET 6:27 PM CET
Crepúsculo astronómico 6:24 AM CET 7:01 PM CET
Luna 7:55 AM CET (12/7) 5:48 PM CET (12/7)
Horas de luz 10h 20m
Horas de luz
9h 18m
Luna nueva, 0% of the Moon is Illuminated
Dic 7
Luna nueva
Dic 15
Cuarto creciente
Dic 22
Luna llena
Dic 29
Cuarto menguante
Ene 6
Nueva

Hourly Weather History & Observations

Hora (CET) Temp. Vientos helados Punto de rocío Humedad Presión Visibilidad Wind Dir Velocidad del viento Velocidad de ráfagas Precip Eventos Condiciones
12:00 AM 50.0 ° F - 44.6 ° F 82% 30.30 pul - Norte 8.1 mph - N/A   Despejado
12:30 AM 50.0 ° F - 44.6 ° F 82% 30.33 pul - NNO 9.2 mph - N/A   Despejado
1:00 AM 50.0 ° F - 44.6 ° F 82% 30.33 pul - NO 13.8 mph - N/A   Despejado
1:30 AM 48.2 ° F - 44.6 ° F 87% 30.30 pul - NNO 12.7 mph - N/A   Despejado
2:00 AM 49 ° F - 46 ° F 83% 30.32 pul 7 mi Norte 13.8 mph - -  
2:00 AM 48.2 ° F - 44.6 ° F 87% 30.30 pul - NNO 13.8 mph - N/A   Despejado
2:30 AM 48.2 ° F - 44.6 ° F 87% 30.30 pul - NNO 12.7 mph - N/A   Despejado
3:00 AM 48 ° F - 45 ° F 87% 30.31 pul 8 mi Norte 13.8 mph - -  
3:00 AM 48.2 ° F - 44.6 ° F 87% 30.30 pul - NNO 11.5 mph - N/A   Despejado
3:30 AM 48.2 ° F - 44.6 ° F 87% 30.30 pul 5.6 mi NNO 13.8 mph - N/A   Desconocido
4:00 AM 48 ° F - 45 ° F 86% 30.30 pul 6 mi Norte 15.0 mph - -   Neblina
4:00 AM 48.2 ° F - 44.6 ° F 87% 30.27 pul 5.6 mi NNO 13.8 mph - N/A   Desconocido
4:30 AM 48.2 ° F - 44.6 ° F 87% 30.27 pul 5.6 mi NO 13.8 mph - N/A   Desconocido
5:00 AM 48 ° F - 45 ° F 84% 30.29 pul 9 mi Norte 10.4 mph - -  
5:00 AM 46.4 ° F 41.1 ° F 42.8 ° F 87% 30.27 pul - NO 11.5 mph - N/A   Despejado
5:30 AM 46.4 ° F 40.7 ° F 42.8 ° F 87% 30.27 pul - NO 12.7 mph - N/A   Despejado
6:00 AM 48 ° F - 44 ° F 82% 30.28 pul 11 mi Norte 13.8 mph - -  
6:00 AM 46.4 ° F 40.4 ° F 42.8 ° F 87% 30.27 pul - NNO 13.8 mph - N/A   Despejado
6:30 AM 46.4 ° F 40.7 ° F 42.8 ° F 87% 30.27 pul - NNO 12.7 mph - N/A   Despejado
7:00 AM 47 ° F - 44 ° F 83% 30.28 pul 9 mi Norte 13.8 mph - -   Despejado
7:00 AM 46.4 ° F 41.1 ° F 42.8 ° F 87% 30.27 pul - NNO 11.5 mph - N/A   Despejado
7:30 AM 46.4 ° F 40.7 ° F 42.8 ° F 87% 30.27 pul - NNO 12.7 mph - N/A   Despejado
8:00 AM 47 ° F - 43 ° F 82% 30.28 pul 11 mi Norte 11.5 mph - -  
8:00 AM 46.4 ° F 40.7 ° F 41.0 ° F 81% 30.27 pul - NNO 12.7 mph 32.2 mph N/A   Despejado
8:30 AM 46.4 ° F 40.7 ° F 42.8 ° F 87% 30.27 pul - NNO 12.7 mph - N/A   Despejado
9:00 AM 46.4 ° F 40.4 ° F 42.8 ° F 87% 30.27 pul - NNO 13.8 mph - N/A   Despejado
9:30 AM 48.2 ° F - 42.8 ° F 82% 30.27 pul - NNO 13.8 mph 27.6 mph N/A   Despejado
10:30 AM 51.8 ° F - 42.8 ° F 71% 30.27 pul - NO 12.7 mph - N/A   Despejado
11:00 AM 54 ° F - 45 ° F 63% 30.29 pul 15 mi Norte 9.2 mph - -  
11:00 AM 53.6 ° F - 42.8 ° F 67% 30.27 pul - NO 12.7 mph 25.3 mph N/A   Despejado
11:30 AM 53.6 ° F - 44.6 ° F 72% 30.27 pul - NO 15.0 mph - N/A   Despejado
12:00 PM 55 ° F - 45 ° F 60% 30.27 pul 17 mi NNO 12.7 mph - -  
12:00 PM 53.6 ° F - 44.6 ° F 72% 30.27 pul 6.2 mi NO 12.7 mph 26.5 mph N/A   Parcialmente nublado
12:30 PM 53.6 ° F - 44.6 ° F 72% 30.27 pul 6.2 mi NO 17.3 mph 28.8 mph N/A   Parcialmente nublado
1:00 PM 57 ° F - 46 ° F 56% 30.25 pul 12 mi Norte 11.5 mph - -   Nubes dispersas
1:00 PM 55.4 ° F - 44.6 ° F 67% 30.24 pul 6.2 mi NNO 15.0 mph - N/A   Parcialmente nublado
1:30 PM 55.4 ° F - 44.6 ° F 67% 30.24 pul 6.2 mi NO 12.7 mph 24.2 mph N/A   Parcialmente nublado
2:00 PM 55.4 ° F - 44.6 ° F 67% 30.21 pul 6.2 mi NNO 16.1 mph 27.6 mph N/A   Parcialmente nublado
2:30 PM 55.4 ° F - 44.6 ° F 67% 30.21 pul 6.2 mi NNO 12.7 mph - N/A   Parcialmente nublado
3:00 PM 55.4 ° F - 44.6 ° F 67% 30.21 pul 6.2 mi NNO 13.8 mph - N/A   Parcialmente nublado
3:30 PM 55.4 ° F - 44.6 ° F 67% 30.18 pul 6.2 mi NNO 12.7 mph - N/A   Parcialmente nublado
4:00 PM 55.4 ° F - 44.6 ° F 67% 30.18 pul 6.2 mi NNO 12.7 mph - N/A   Parcialmente nublado
4:30 PM 53.6 ° F - 44.6 ° F 72% 30.21 pul 6.2 mi NNO 12.7 mph - N/A   Parcialmente nublado
5:00 PM 54 ° F - 45 ° F 63% 30.22 pul 19 mi Norte 9.2 mph - -  
5:00 PM 53.6 ° F - 42.8 ° F 67% 30.21 pul 6.2 mi NO 15.0 mph - N/A   Parcialmente nublado
5:30 PM 51.8 ° F - 42.8 ° F 71% 30.21 pul - NNO 11.5 mph - N/A   Despejado
6:00 PM 50.0 ° F - 42.8 ° F 76% 30.21 pul - NNO 12.7 mph - N/A   Despejado
6:30 PM 50.0 ° F - 42.8 ° F 76% 30.21 pul - Norte 9.2 mph - N/A   Despejado
7:00 PM 50.0 ° F - 41.0 ° F 71% 30.21 pul - NO 3.5 mph - N/A   Despejado
7:30 PM 50.0 ° F - 42.8 ° F 76% 30.21 pul - NO 11.5 mph - N/A   Despejado
8:00 PM 50 ° F - 43 ° F 71% 30.22 pul 14 mi NNE 5.8 mph - -  
8:00 PM 50.0 ° F - 41.0 ° F 71% 30.21 pul 6.2 mi NNO 8.1 mph - N/A   Parcialmente nublado
8:30 PM 50.0 ° F - 42.8 ° F 76% 30.21 pul 6.2 mi NNO 9.2 mph - N/A   Parcialmente nublado
9:00 PM 50 ° F - 44 ° F 72% 30.22 pul 13 mi Norte 8.1 mph - -  
9:00 PM 50.0 ° F - 42.8 ° F 76% 30.21 pul 6.2 mi NNO 9.2 mph - N/A   Parcialmente nublado
9:30 PM 48.2 ° F - 42.8 ° F 82% 30.21 pul 6.2 mi NNO 9.2 mph - N/A   Parcialmente nublado
10:00 PM 48.2 ° F - 42.8 ° F 82% 30.18 pul 6.2 mi NO 9.2 mph - N/A   Parcialmente nublado
10:30 PM 48.2 ° F - 42.8 ° F 82% 30.21 pul 6.2 mi NNO 12.7 mph - N/A   Parcialmente nublado
11:00 PM 49 ° F - 44 ° F 76% 30.22 pul 16 mi Norte 9.2 mph - -  
11:00 PM 48.2 ° F - 42.8 ° F 82% 30.21 pul 6.2 mi NO 12.7 mph - N/A   Parcialmente nublado
11:30 PM 48.2 ° F - 42.8 ° F 82% 30.21 pul 6.2 mi NO 11.5 mph - N/A   Parcialmente nublado